Regional Weather Roundup
Issued by NWS

Home | Current Version | Previous Version | Graphics & Text | Print | Product List | Glossary On
Versions: 1 2 3 4 5 6 7 8 9 10 11 12 13 14 15 16 17 18 19 20 21 22 23 24 25 26 27 28 29 30 31 32 33 34 35 36 37 38 39 40 41 42 43 44 45 46 47 48 49 50
000
ASUS43 KIND 312159
RWRIN

WEATHER ROUNDUP FOR INDIANA
NATIONAL WEATHER SERVICE INDIANAPOLIS IN
600 PM EDT TUE MAY 31 2016

NOTE: "FAIR" INDICATES FEW OR NO CLOUDS BELOW 12,000 FEET WITH NO
SIGNIFICANT WEATHER AND/OR OBSTRUCTIONS TO VISIBILITY.

* - STATION DOES NOT REPORT WEATHER SUCH AS PRECIPITATION OR FOG.

+ - STATION NOT QUALITY CONTROLLED BY THE NATIONAL WEATHER SERVICE.
    USE DATA WITH CAUTION...ESPECIALLY DEWPOINT AND RELATIVE
    HUMIDITY OBSERVATIONS.

INZ001>003-010>013-019-020-312300-
NORTHWEST INDIANA

CITY           SKY/WX    TMP DP  RH WIND       PRES   REMARKS
GARY /AIRPORT/ CLOUDY    68  68 100 NW12      30.01R
RENSSELAER +   MOSUNNY   73  63  68 E16       29.96S

$$

LMZ046-743>745-312300-
SOUTHERN LAKE MICHIGAN

STATION/POSITION TIME  TEMP    WIND        PRES    WAVE
                       AIR SEA DIR/SP/G            HT
                 (UTC) (F)     (DEG/KT/KT) (MB)    (FT)
BURNS HARBOR     2100   75     120/ 14/ 21 1014.9R
MICHIGAN CITY    2100   72     180/ 18/ 21   N/A
5NW MICH CITY    2100   71 63  200/ 16/ 19   N/A     1

$$

INZ004-005-014>016-021>024-312300-
NORTH CENTRAL INDIANA

CITY           SKY/WX    TMP DP  RH WIND       PRES   REMARKS
GOSHEN         CLOUDY    86  49  27 E14       29.96S
SOUTH BEND     MOSUNNY   84  51  31 E8        29.96S
WARSAW +       CLOUDY    81  55  41 E8        29.96S

$$

INZ006>009-017-018-025>027-312300-
NORTHEAST INDIANA

CITY           SKY/WX    TMP DP  RH WIND       PRES   REMARKS
ANGOLA *+        N/A     84  48  28 E8        29.99F
FORT WAYNE     MOSUNNY   85  51  31 E15       29.97S

$$

INZ028-029-035-036-043>045-051>053-312300-
WEST CENTRAL INDIANA

CITY           SKY/WX    TMP DP  RH WIND       PRES   REMARKS
CRAWFORDSVL +  SUNNY     86  52  30 S12       29.94S
GREENCASTLE +  SUNNY     82  63  51 S6        29.94S
LAFAYETTE      CLOUDY    85  52  32 S6        29.92R
TERRE HAUTE    MOSUNNY   87  54  32 S12       29.92S

$$

INZ030>032-037>040-046>048-054>057-064-065-312300-
CENTRAL INDIANA

CITY           SKY/WX    TMP DP  RH WIND       PRES   REMARKS
CP ATTERBURY + MOSUNNY   86  59  39 CALM      29.95S
COLUMBUS       MOSUNNY   84  57  39 S7        29.94F
FRANKFORT +      N/A     83  34  17 E9        29.96R
INDIANAPOLIS   MOSUNNY   83  59  44 E8        29.94S
-EAGLE CREEK   CLOUDY    87  56  34 SE10      29.94S
KOKOMO *+      CLOUDY    79  55  44 N12       29.94R
SHELBYVILLE    CLOUDY    76  64  66 N6        29.95F

$$

INZ033-034-041-042-049-050-058-059-312300-
EAST CENTRAL INDIANA

CITY           SKY/WX    TMP DP  RH WIND       PRES   REMARKS
MUNCIE         PTSUNNY   87  52  29 E7        29.95S

$$

INZ060-061-067>069-081>083-085>088-312300-
SOUTHWEST INDIANA

CITY           SKY/WX    TMP DP  RH WIND       PRES   REMARKS
EVANSVILLE     CLOUDY    85  57  38 SE6       29.91F
HUNTINGBURG *+ MOSUNNY   84  63  48 SE7       29.93S

$$

INZ062-063-066-070>080-084-089>092-312300-
SOUTH CENTRAL AND SOUTHEAST INDIANA

CITY           SKY/WX    TMP DP  RH WIND       PRES   REMARKS
BLOOMINGTON    SUNNY     85  58  39 SW7       29.94F
MADISON *+     PTSUNNY   82  55  39 CALM      29.97S
SEYMOUR +      PTSUNNY   88  57  35 S7        29.93F

$$





USA.gov is the U.S. government's official web portal to all federal, state and local government web resources and services.